#timestamp,LO_Frequency,Hit,StdDev 
1566961215.5,286047008.3,N
1566961235.3,286047009.9,N
1566961255.2,286047009.5,N
1566961275.9,286047010.6,Y
1566961295.7,286047004.3,P
1566961315.6,286047001.3,N
1566961335.4,286047002.9,N
1566961355.3,286047007.4,N
1566961375.1,286047006.9,N
1566961376.0,286047006.9,N
1566961395.8,286047007.4,N
1566961415.7,286047008.5,Y
1566961435.5,286047002.9,P
1566961455.3,286047004.1,N
1566961475.2,286047002.7,N
1566961495.0,286047001.4,N
1566961495.9,286047001.4,N
1566961515.8,286047001.7,N
1566961535.6,286047003.1,N
1566961555.4,286047002.6,N
1566961575.3,286047002.7,N
1566961595.1,286047000.2,N
1566961615.9,286047002.8,N
1566961635.7,286047003.2,N
1566961655.5,286047003.9,N
1566961675.4,286047004.4,Y
1566961695.2,286047000.7,P
1566961715.0,286046998.5,N
1566961715.9,286046998.5,N
1566961735.8,286047000.2,N
1566961755.6,286047001.9,N
1566961775.5,286047000.1,N
1566961795.3,286047004.4,N
1566961815.1,286047003.7,N
1566961835.9,286047002.7,N
1566961855.7,286047002.7,N
1566961875.5,286046999.8,N
1566961895.4,286047001.3,N
1566961915.2,286047005.3,N
1566961935.1,286047006.9,Y
1566961936.0,286047006.9,P
1566961955.8,286047006.0,N
1566961975.6,286047007.0,P
1566961995.5,286047005.6,N
1566962015.3,286047004.4,N
1566962035.1,286047001.6,N
1566962055.9,286047002.1,N
1566962075.7,286047003.9,N
1566962095.6,286047003.8,N
1566962115.4,286047004.4,N
1566962135.2,286047004.9,N
1566962155.1,286047008.9,Y
1566962156.0,286047008.9,P
1566962175.8,286047003.4,N
1566962195.6,286047003.0,N
1566962215.5,286047005.7,N
1566962235.3,286047005.7,N
1566962255.2,286047005.0,N
1566962275.9,286047006.7,Y
1566962295.7,286047004.3,P
1566962315.6,286047003.3,P
1566962335.4,286047003.1,P
1566962355.2,286047003.7,Y
1566962375.1,286046999.5,P
1566962376.0,286046999.5,N
1566962395.8,286046999.0,N
1566962415.7,286046998.9,N
1566962435.5,286047001.0,N
1566962455.3,286047000.4,N
1566962475.2,286047000.5,N
1566962495.0,286047002.8,N
1566962495.9,286047002.8,N
1566962515.8,286047004.0,N
1566962535.6,286047002.3,N
1566962555.4,286047004.4,N
1566962575.3,286047001.4,N
1566962595.1,286047003.9,N
1566962615.8,286047003.4,N
1566962635.7,286047005.4,N
1566962655.5,286047002.5,N
1566962675.3,286047001.7,N
1566962695.2,286047003.6,N
1566962715.0,286047005.5,N
1566962715.9,286047005.5,N
1566962735.8,286047006.0,N
1566962755.6,286047010.8,Y
1566962775.4,286047007.6,P
1566962795.3,286047005.2,N
1566962815.1,286047007.4,P
1566962835.9,286047009.3,Y
1566962855.7,286047003.6,P
1566962875.5,286047005.1,P
1566962895.4,286047004.9,P
1566962915.2,286047003.7,Y
1566962935.0,286046999.6,P
1566962935.9,286046999.6,N
1566962955.8,286046997.1,N
1566962975.6,286046995.2,N
1566962995.5,286046996.8,N
1566963015.3,286046996.6,N
1566963035.1,286046998.4,N
1566963055.9,286046998.5,N
1566963075.7,286046998.4,N
1566963095.5,286046998.1,N
1566963115.4,286047002.7,N
1566963135.2,286047001.5,N
1566963155.1,286047002.1,N
1566963156.0,286047002.1,N
1566963175.8,286047002.9,N
1566963195.6,286047003.7,N
1566963215.5,286047007.2,N
1566963235.3,286047004.5,N
1566963255.1,286047007.3,N
1566963275.0,286047008.0,N
1566963275.9,286047008.0,N
1566963295.7,286047006.7,N
1566963315.6,286047009.0,N
1566963335.4,286047007.3,N
1566963355.3,286047007.5,N
1566963375.1,286047008.1,N
1566963376.0,286047008.1,N
1566963395.8,286047010.1,N
1566963415.7,286047009.9,N
1566963435.5,286047011.6,N
1566963455.3,286047013.3,N
1566963475.2,286047015.5,Y
1566963495.0,286047010.5,P
1566963495.9,286047010.5,P
1566963515.8,286047011.7,P
1566963535.6,286047011.9,Y
1566963555.4,286047002.4,P
1566963575.3,286047002.6,N
1566963595.1,286047004.3,N
1566963615.9,286047002.5,N
1566963635.7,286046999.8,N
1566963655.5,286047000.0,N
1566963675.4,286046999.5,N
1566963695.2,286046995.1,N
1566963715.0,286046994.3,N
1566963716.0,286046994.3,N
1566963735.8,286046994.4,N
1566963755.6,286046995.2,N
1566963775.5,286046993.8,N
1566963795.3,286046993.5,N
1566963815.1,286046993.9,N
1566963835.9,286046995.6,N
1566963855.7,286046995.8,N
1566963875.5,286046995.6,N
1566963895.4,286046997.2,N
1566963915.2,286046998.3,N
1566963935.1,286046999.2,N
1566963936.0,286046999.2,N
1566963955.8,286046995.5,N
1566963975.7,286046998.0,N
1566963995.5,286047001.1,N
1566964015.3,286046998.7,N
1566964035.2,286046998.8,N
1566964055.0,286046997.4,N
1566964055.9,286046997.4,N
1566964075.7,286046995.5,N
1566964095.6,286046998.5,N
1566964115.4,286046998.8,N
1566964135.3,286047000.8,N
1566964155.1,286046999.2,N
1566964156.0,286046999.2,N
1566964175.8,286046997.0,N
1566964195.7,286047001.1,N
1566964215.5,286046998.7,N
1566964235.3,286046999.3,N
1566964255.2,286046999.8,N
1566964275.0,286047000.6,N
1566964275.9,286047000.6,N
1566964295.8,286047002.8,N
1566964315.6,286047003.2,N
1566964335.4,286047006.5,N
1566964355.3,286047006.4,N
1566964375.1,286047007.1,N
1566964395.9,286047005.2,N
1566964415.7,286047004.8,N
1566964435.5,286047008.5,N
1566964455.4,286047008.9,N
1566964475.2,286047005.6,N
1566964495.0,286047003.9,N
1566964495.9,286047003.9,N
1566964515.8,286047005.6,N
1566964535.6,286047003.6,N
1566964555.5,286046996.5,N
1566964575.3,286046997.1,N
1566964595.1,286046998.2,N
1566964615.9,286046999.9,N
1566964635.7,286047000.0,N
1566964655.5,286047000.2,N
1566964675.4,286047000.5,N
1566964695.2,286047000.5,N
1566964715.0,286046996.5,N
1566964716.0,286046996.5,N
1566964735.8,286046999.9,N
1566964755.6,286046998.8,N
1566964775.5,286046997.2,N
1566964795.3,286046997.6,N
